owner,sensor,date,latitude,longitude,vertical_datum,wind_speed,wind_to_direction,wind_speed_of_gust,qcFlag 
TCOON,ioos:station:TCOON:518:1,2012-07-01T00:00:00Z,29.5150,-94.5133,0.0,6.2,137.0,7.3,'11111222,11111222,11111222' 
TCOON,ioos:station:TCOON:518:1,2012-07-01T01:00:00Z,29.5150,-94.5133,0.0,9.0,144.0,10.4,'11111222,11111222,11111222' 
TCOON,ioos:station:TCOON:518:1,2012-07-01T02:00:00Z,29.5150,-94.5133,0.0,7.1,141.0,9.0,'11111222,11111222,11111222' 
TCOON,ioos:station:TCOON:518:1,2012-07-01T03:00:00Z,29.5150,-94.5133,0.0,4.8,145.0,6.7,'11111222,11111222,11111222' 
TCOON,ioos:station:TCOON:518:1,2012-07-01T04:00:00Z,29.5150,-94.5133,0.0,7.4,140.0,9.0,'11111222,11111222,11111222' 
TCOON,ioos:station:TCOON:518:1,2012-07-01T05:00:00Z,29.5150,-94.5133,0.0,8.3,137.0,10.0,'11111222,11111222,11111222' 
TCOON,ioos:station:TCOON:518:1,2012-07-01T06:00:00Z,29.5150,-94.5133,0.0,5.6,135.0,7.9,'11111222,11111222,11111222' 
TCOON,ioos:station:TCOON:518:1,2012-07-01T07:00:00Z,29.5150,-94.5133,0.0,5.6,164.0,7.2,'11111222,11111222,11111222' 
TCOON,ioos:station:TCOON:518:1,2012-07-01T08:00:00Z,29.5150,-94.5133,0.0,7.3,137.0,9.1,'11111222,11111222,11111222' 
TCOON,ioos:station:TCOON:518:1,2012-07-01T09:00:00Z,29.5150,-94.5133,0.0,3.8,178.0,5.1,'11111222,11111222,11111222' 
TCOON,ioos:station:TCOON:518:1,2012-07-01T10:00:00Z,29.5150,-94.5133,0.0,4.5,165.0,6.2,'11111222,11111222,11111222' 
TCOON,ioos:station:TCOON:518:1,2012-07-01T11:00:00Z,29.5150,-94.5133,0.0,4.0,157.0,5.4,'11111222,11111222,11111222' 
TCOON,ioos:station:TCOON:518:1,2012-07-01T12:00:00Z,29.5150,-94.5133,0.0,4.2,153.0,5.8,'11111222,11111222,11111222' 
TCOON,ioos:station:TCOON:518:1,2012-07-01T13:00:00Z,29.5150,-94.5133,0.0,6.4,155.0,7.7,'11111222,11111222,11111222' 
TCOON,ioos:station:TCOON:518:1,2012-07-01T14:00:00Z,29.5150,-94.5133,0.0,6.5,158.0,7.9,'11111222,11111222,11111222' 
TCOON,ioos:station:TCOON:518:1,2012-07-01T15:00:00Z,29.5150,-94.5133,0.0,5.7,162.0,7.2,'11111222,11111222,11111222' 
TCOON,ioos:station:TCOON:518:1,2012-07-01T16:00:00Z,29.5150,-94.5133,0.0,5.8,162.0,7.6,'11111222,11111222,11111222' 
TCOON,ioos:station:TCOON:518:1,2012-07-01T17:00:00Z,29.5150,-94.5133,0.0,7.0,157.0,8.0,'11111222,11111222,11111222' 
TCOON,ioos:station:TCOON:518:1,2012-07-01T18:00:00Z,29.5150,-94.5133,0.0,5.0,160.0,6.9,'11111222,11111222,11111222' 
TCOON,ioos:station:TCOON:518:1,2012-07-01T19:00:00Z,29.5150,-94.5133,0.0,5.3,168.0,7.4,'11111222,11111222,11111222' 
TCOON,ioos:station:TCOON:518:1,2012-07-01T20:00:00Z,29.5150,-94.5133,0.0,3.2,278.0,7.1,'11111222,11111222,11111222' 
TCOON,ioos:station:TCOON:518:1,2012-07-01T21:00:00Z,29.5150,-94.5133,0.0,3.2,286.0,3.8,'11111222,11111222,11111222' 
TCOON,ioos:station:TCOON:518:1,2012-07-01T22:00:00Z,29.5150,-94.5133,0.0,0.4,338.0,0.6,'11111222,11111222,11111222' 
TCOON,ioos:station:TCOON:518:1,2012-07-01T23:00:00Z,29.5150,-94.5133,0.0,5.2,149.0,5.9,'11111222,11111222,11111222' 
TCOON,ioos:station:TCOON:518:1,2012-07-02T00:00:00Z,29.5150,-94.5133,0.0,6.0,140.0,7.1,'11111222,11111222,11111222' 
TCOON,ioos:station:TCOON:518:1,2012-07-02T01:00:00Z,29.5150,-94.5133,0.0,6.3,140.0,7.5,'11111222,11111222,11111222' 
TCOON,ioos:station:TCOON:518:1,2012-07-02T02:00:00Z,29.5150,-94.5133,0.0,4.8,153.0,6.4,'11111222,11111222,11111222' 
TCOON,ioos:station:TCOON:518:1,2012-07-02T03:00:00Z,29.5150,-94.5133,0.0,4.8,152.0,6.8,'11111222,11111222,11111222' 
TCOON,ioos:station:TCOON:518:1,2012-07-02T04:00:00Z,29.5150,-94.5133,0.0,5.4,160.0,6.4,'11111222,11111222,11111222' 
TCOON,ioos:station:TCOON:518:1,2012-07-02T05:00:00Z,29.5150,-94.5133,0.0,3.7,169.0,5.0,'11111222,11111222,11111222' 
TCOON,ioos:station:TCOON:518:1,2012-07-02T06:00:00Z,29.5150,-94.5133,0.0,3.4,180.0,6.3,'11111222,11111222,11111222' 
TCOON,ioos:station:TCOON:518:1,2012-07-02T07:00:00Z,29.5150,-94.5133,0.0,3.3,176.0,5.9,'11111222,11111222,11111222' 
TCOON,ioos:station:TCOON:518:1,2012-07-02T08:00:00Z,29.5150,-94.5133,0.0,4.2,174.0,5.8,'11111222,11111222,11111222' 
TCOON,ioos:station:TCOON:518:1,2012-07-02T09:00:00Z,29.5150,-94.5133,0.0,3.1,172.0,5.8,'11111222,11111222,11111222' 
TCOON,ioos:station:TCOON:518:1,2012-07-02T10:00:00Z,29.5150,-94.5133,0.0,3.6,175.0,6.3,'11111222,11111222,11111222' 
TCOON,ioos:station:TCOON:518:1,2012-07-02T11:00:00Z,29.5150,-94.5133,0.0,3.1,178.0,4.6,'11111222,11111222,11111222' 
TCOON,ioos:station:TCOON:518:1,2012-07-02T12:00:00Z,29.5150,-94.5133,0.0,2.8,175.0,4.0,'11111222,11111222,11111222' 
TCOON,ioos:station:TCOON:518:1,2012-07-02T13:00:00Z,29.5150,-94.5133,0.0,2.7,169.0,3.6,'11111222,11111222,11111222' 
TCOON,ioos:station:TCOON:518:1,2012-07-02T14:00:00Z,29.5150,-94.5133,0.0,3.7,162.0,4.7,'11111222,11111222,11111222' 
TCOON,ioos:station:TCOON:518:1,2012-07-02T15:00:00Z,29.5150,-94.5133,0.0,3.5,161.0,5.4,'11111222,11111222,11111222' 
TCOON,ioos:station:TCOON:518:1,2012-07-02T16:00:00Z,29.5150,-94.5133,0.0,3.6,145.0,5.2,'11111222,11111222,11111222' 
TCOON,ioos:station:TCOON:518:1,2012-07-02T17:00:00Z,29.5150,-94.5133,0.0,4.0,132.0,5.4,'11111222,11111222,11111222' 
TCOON,ioos:station:TCOON:518:1,2012-07-02T18:00:00Z,29.5150,-94.5133,0.0,3.2,155.0,4.9,'11111222,11111222,11111222' 
TCOON,ioos:station:TCOON:518:1,2012-07-02T19:00:00Z,29.5150,-94.5133,0.0,3.8,158.0,5.5,'11111222,11111222,11111222' 
TCOON,ioos:station:TCOON:518:1,2012-07-02T20:00:00Z,29.5150,-94.5133,0.0,5.2,147.0,5.8,'11111222,11111222,11111222' 
TCOON,ioos:station:TCOON:518:1,2012-07-02T21:00:00Z,29.5150,-94.5133,0.0,5.4,151.0,6.7,'11111222,11111222,11111222' 
TCOON,ioos:station:TCOON:518:1,2012-07-02T22:00:00Z,29.5150,-94.5133,0.0,5.2,141.0,5.9,'11111222,11111222,11111222' 
TCOON,ioos:station:TCOON:518:1,2012-07-02T23:00:00Z,29.5150,-94.5133,0.0,4.2,132.0,5.5,'11111222,11111222,11111222' 
TCOON,ioos:station:TCOON:518:1,2012-07-03T00:00:00Z,29.5150,-94.5133,0.0,3.8,144.0,4.9,'11111222,11111222,11111222' 
TCOON,ioos:station:TCOON:518:1,2012-07-03T01:00:00Z,29.5150,-94.5133,0.0,3.1,156.0,4.2,'11111222,11111222,11111222' 
TCOON,ioos:station:TCOON:518:1,2012-07-03T02:00:00Z,29.5150,-94.5133,0.0,3.3,153.0,4.7,'11111222,11111222,11111222' 
TCOON,ioos:station:TCOON:518:1,2012-07-03T03:00:00Z,29.5150,-94.5133,0.0,2.9,162.0,4.3,'11111222,11111222,11111222' 
TCOON,ioos:station:TCOON:518:1,2012-07-03T04:00:00Z,29.5150,-94.5133,0.0,2.9,168.0,4.4,'11111222,11111222,11111222' 
TCOON,ioos:station:TCOON:518:1,2012-07-03T05:00:00Z,29.5150,-94.5133,0.0,3.5,165.0,4.5,'11111222,11111222,11111222' 
TCOON,ioos:station:TCOON:518:1,2012-07-03T06:00:00Z,29.5150,-94.5133,0.0,3.3,180.0,5.4,'11111222,11111222,11111222' 
TCOON,ioos:station:TCOON:518:1,2012-07-03T07:00:00Z,29.5150,-94.5133,0.0,3.2,182.0,5.8,'11111222,11111222,11111222' 
TCOON,ioos:station:TCOON:518:1,2012-07-03T08:00:00Z,29.5150,-94.5133,0.0,2.9,192.0,4.6,'11111222,11111222,11111222' 
TCOON,ioos:station:TCOON:518:1,2012-07-03T09:00:00Z,29.5150,-94.5133,0.0,2.2,205.0,3.4,'11111222,11111222,11111222' 
TCOON,ioos:station:TCOON:518:1,2012-07-03T10:00:00Z,29.5150,-94.5133,0.0,2.3,194.0,3.9,'11111222,11111222,11111222' 
TCOON,ioos:station:TCOON:518:1,2012-07-03T11:00:00Z,29.5150,-94.5133,0.0,2.0,185.0,3.4,'11111222,11111222,11111222' 
TCOON,ioos:station:TCOON:518:1,2012-07-03T12:00:00Z,29.5150,-94.5133,0.0,1.6,188.0,2.7,'11111222,11111222,11111222' 
TCOON,ioos:station:TCOON:518:1,2012-07-03T13:00:00Z,29.5150,-94.5133,0.0,1.7,158.0,2.6,'11111222,11111222,11111222' 
TCOON,ioos:station:TCOON:518:1,2012-07-03T14:00:00Z,29.5150,-94.5133,0.0,1.5,133.0,2.8,'11111222,11111222,11111222' 
TCOON,ioos:station:TCOON:518:1,2012-07-03T15:00:00Z,29.5150,-94.5133,0.0,1.8,142.0,3.8,'11111222,11111222,11111222' 
TCOON,ioos:station:TCOON:518:1,2012-07-03T16:00:00Z,29.5150,-94.5133,0.0,2.8,166.0,4.5,'11111222,11111222,11111222' 
TCOON,ioos:station:TCOON:518:1,2012-07-03T17:00:00Z,29.5150,-94.5133,0.0,2.8,150.0,4.0,'11111222,11111222,11111222' 
TCOON,ioos:station:TCOON:518:1,2012-07-03T18:00:00Z,29.5150,-94.5133,0.0,3.1,161.0,4.8,'11111222,11111222,11111222' 
TCOON,ioos:station:TCOON:518:1,2012-07-03T19:00:00Z,29.5150,-94.5133,0.0,3.9,161.0,5.2,'11111222,11111222,11111222' 
TCOON,ioos:station:TCOON:518:1,2012-07-03T20:00:00Z,29.5150,-94.5133,0.0,5.0,150.0,6.3,'11111222,11111222,11111222' 
TCOON,ioos:station:TCOON:518:1,2012-07-03T21:00:00Z,29.5150,-94.5133,0.0,4.4,154.0,6.1,'11111222,11111222,11111222' 
TCOON,ioos:station:TCOON:518:1,2012-07-03T22:00:00Z,29.5150,-94.5133,0.0,4.5,168.0,6.0,'11111222,11111222,11111222' 
TCOON,ioos:station:TCOON:518:1,2012-07-03T23:00:00Z,29.5150,-94.5133,0.0,3.5,188.0,5.3,'11111222,11111222,11111222' 
TCOON,ioos:station:TCOON:518:1,2012-07-04T01:00:00Z,29.5150,-94.5133,0.0,3.0,186.0,4.4,'11111222,11111222,11111222' 
TCOON,ioos:station:TCOON:518:1,2012-07-04T03:00:00Z,29.5150,-94.5133,0.0,4.2,156.0,5.5,'11111222,11111222,11111222' 
TCOON,ioos:station:TCOON:518:1,2012-07-04T04:00:00Z,29.5150,-94.5133,0.0,4.1,161.0,5.0,'11111222,11111222,11111222' 
TCOON,ioos:station:TCOON:518:1,2012-07-04T05:00:00Z,29.5150,-94.5133,0.0,2.8,167.0,4.9,'11111222,11111222,11111222' 
TCOON,ioos:station:TCOON:518:1,2012-07-04T06:00:00Z,29.5150,-94.5133,0.0,2.9,185.0,4.0,'11111222,11111222,11111222' 
TCOON,ioos:station:TCOON:518:1,2012-07-04T07:00:00Z,29.5150,-94.5133,0.0,3.4,178.0,4.9,'11111222,11111222,11111222' 
TCOON,ioos:station:TCOON:518:1,2012-07-04T08:00:00Z,29.5150,-94.5133,0.0,3.3,181.0,5.0,'11111222,11111222,11111222' 
TCOON,ioos:station:TCOON:518:1,2012-07-04T09:00:00Z,29.5150,-94.5133,0.0,2.9,184.0,4.6,'11111222,11111222,11111222' 
TCOON,ioos:station:TCOON:518:1,2012-07-04T10:00:00Z,29.5150,-94.5133,0.0,3.8,171.0,5.8,'11111222,11111222,11111222' 
TCOON,ioos:station:TCOON:518:1,2012-07-04T11:00:00Z,29.5150,-94.5133,0.0,3.5,185.0,5.2,'11111222,11111222,11111222' 
TCOON,ioos:station:TCOON:518:1,2012-07-04T12:00:00Z,29.5150,-94.5133,0.0,3.1,198.0,3.6,'11111222,11111222,11111222' 
TCOON,ioos:station:TCOON:518:1,2012-07-04T13:00:00Z,29.5150,-94.5133,0.0,2.8,183.0,4.3,'11111222,11111222,11111222' 
TCOON,ioos:station:TCOON:518:1,2012-07-04T14:00:00Z,29.5150,-94.5133,0.0,2.7,181.0,4.0,'11111222,11111222,11111222' 
TCOON,ioos:station:TCOON:518:1,2012-07-04T15:00:00Z,29.5150,-94.5133,0.0,3.8,200.0,5.2,'11111222,11111222,11111222' 
TCOON,ioos:station:TCOON:518:1,2012-07-04T16:00:00Z,29.5150,-94.5133,0.0,2.7,183.0,4.2,'11111222,11111222,11111222' 
TCOON,ioos:station:TCOON:518:1,2012-07-04T17:00:00Z,29.5150,-94.5133,0.0,3.7,154.0,5.5,'11111222,11111222,11111222' 
TCOON,ioos:station:TCOON:518:1,2012-07-04T18:00:00Z,29.5150,-94.5133,0.0,3.5,188.0,5.5,'11111222,11111222,11111222' 
TCOON,ioos:station:TCOON:518:1,2012-07-04T19:00:00Z,29.5150,-94.5133,0.0,4.1,171.0,6.3,'11111222,11111222,11111222' 
TCOON,ioos:station:TCOON:518:1,2012-07-04T20:00:00Z,29.5150,-94.5133,0.0,4.2,177.0,6.9,'11111222,11111222,11111222' 
TCOON,ioos:station:TCOON:518:1,2012-07-04T21:00:00Z,29.5150,-94.5133,0.0,4.9,164.0,6.8,'11111222,11111222,11111222' 
TCOON,ioos:station:TCOON:518:1,2012-07-04T22:00:00Z,29.5150,-94.5133,0.0,3.7,176.0,6.1,'11111222,11111222,11111222' 
TCOON,ioos:station:TCOON:518:1,2012-07-04T23:00:00Z,29.5150,-94.5133,0.0,3.7,179.0,5.6,'11111222,11111222,11111222' 
TCOON,ioos:station:TCOON:518:1,2012-07-05T00:00:00Z,29.5150,-94.5133,0.0,4.2,182.0,6.6,'11111222,11111222,11111222' 
TCOON,ioos:station:TCOON:518:1,2012-07-05T01:00:00Z,29.5150,-94.5133,0.0,3.5,171.0,5.0,'11111222,11111222,11111222' 
TCOON,ioos:station:TCOON:518:1,2012-07-05T02:00:00Z,29.5150,-94.5133,0.0,3.0,177.0,4.2,'11111222,11111222,11111222' 
TCOON,ioos:station:TCOON:518:1,2012-07-05T03:00:00Z,29.5150,-94.5133,0.0,3.1,178.0,5.0,'11111222,11111222,11111222' 
TCOON,ioos:station:TCOON:518:1,2012-07-05T04:00:00Z,29.5150,-94.5133,0.0,2.3,183.0,3.7,'11111222,11111222,11111222' 
TCOON,ioos:station:TCOON:518:1,2012-07-05T05:00:00Z,29.5150,-94.5133,0.0,3.4,170.0,5.0,'11111222,11111222,11111222' 
TCOON,ioos:station:TCOON:518:1,2012-07-05T06:00:00Z,29.5150,-94.5133,0.0,3.9,172.0,6.3,'11111222,11111222,11111222' 
TCOON,ioos:station:TCOON:518:1,2012-07-05T07:00:00Z,29.5150,-94.5133,0.0,3.1,181.0,5.0,'11111222,11111222,11111222' 
TCOON,ioos:station:TCOON:518:1,2012-07-05T08:00:00Z,29.5150,-94.5133,0.0,2.8,184.0,4.7,'11111222,11111222,11111222' 
TCOON,ioos:station:TCOON:518:1,2012-07-05T09:00:00Z,29.5150,-94.5133,0.0,2.8,196.0,5.6,'11111222,11111222,11111222' 
TCOON,ioos:station:TCOON:518:1,2012-07-05T10:00:00Z,29.5150,-94.5133,0.0,2.1,193.0,3.5,'11111222,11111222,11111222' 
TCOON,ioos:station:TCOON:518:1,2012-07-05T11:00:00Z,29.5150,-94.5133,0.0,2.1,189.0,3.4,'11111222,11111222,11111222' 
TCOON,ioos:station:TCOON:518:1,2012-07-05T12:00:00Z,29.5150,-94.5133,0.0,2.0,204.0,3.3,'11111222,11111222,11111222' 
TCOON,ioos:station:TCOON:518:1,2012-07-05T13:00:00Z,29.5150,-94.5133,0.0,2.9,189.0,4.2,'11111222,11111222,11111222' 
TCOON,ioos:station:TCOON:518:1,2012-07-05T14:00:00Z,29.5150,-94.5133,0.0,1.7,196.0,3.5,'11111222,11111222,11111222' 
TCOON,ioos:station:TCOON:518:1,2012-07-05T15:00:00Z,29.5150,-94.5133,0.0,2.9,192.0,4.3,'11111222,11111222,11111222' 
TCOON,ioos:station:TCOON:518:1,2012-07-05T16:00:00Z,29.5150,-94.5133,0.0,1.8,173.0,4.1,'11111222,11111222,11111222' 
TCOON,ioos:station:TCOON:518:1,2012-07-05T17:00:00Z,29.5150,-94.5133,0.0,2.2,182.0,4.2,'11111222,11111222,11111222' 
TCOON,ioos:station:TCOON:518:1,2012-07-05T18:00:00Z,29.5150,-94.5133,0.0,3.5,158.0,5.1,'11111222,11111222,11111222' 
TCOON,ioos:station:TCOON:518:1,2012-07-05T19:00:00Z,29.5150,-94.5133,0.0,3.8,163.0,5.6,'11111222,11111222,11111222' 
TCOON,ioos:station:TCOON:518:1,2012-07-05T20:00:00Z,29.5150,-94.5133,0.0,4.5,158.0,6.1,'11111222,11111222,11111222' 
TCOON,ioos:station:TCOON:518:1,2012-07-05T21:00:00Z,29.5150,-94.5133,0.0,3.4,169.0,5.4,'11111222,11111222,11111222' 
TCOON,ioos:station:TCOON:518:1,2012-07-05T22:00:00Z,29.5150,-94.5133,0.0,4.1,166.0,5.4,'11111222,11111222,11111222' 
TCOON,ioos:station:TCOON:518:1,2012-07-05T23:00:00Z,29.5150,-94.5133,0.0,3.1,186.0,5.9,'11111222,11111222,11111222' 
TCOON,ioos:station:TCOON:518:1,2012-07-06T00:00:00Z,29.5150,-94.5133,0.0,3.3,180.0,5.1,'11111222,11111222,11111222' 
TCOON,ioos:station:TCOON:518:1,2012-07-06T01:00:00Z,29.5150,-94.5133,0.0,2.6,195.0,4.1,'11111222,11111222,11111222' 
TCOON,ioos:station:TCOON:518:1,2012-07-06T02:00:00Z,29.5150,-94.5133,0.0,2.7,186.0,4.0,'11111222,11111222,11111222' 
TCOON,ioos:station:TCOON:518:1,2012-07-06T03:00:00Z,29.5150,-94.5133,0.0,2.3,178.0,3.7,'11111222,11111222,11111222' 
TCOON,ioos:station:TCOON:518:1,2012-07-06T04:00:00Z,29.5150,-94.5133,0.0,2.2,189.0,3.2,'11111222,11111222,11111222' 
TCOON,ioos:station:TCOON:518:1,2012-07-06T05:00:00Z,29.5150,-94.5133,0.0,3.2,184.0,3.9,'11111222,11111222,11111222' 
TCOON,ioos:station:TCOON:518:1,2012-07-06T06:00:00Z,29.5150,-94.5133,0.0,2.2,174.0,3.9,'11111222,11111222,11111222' 
TCOON,ioos:station:TCOON:518:1,2012-07-06T07:00:00Z,29.5150,-94.5133,0.0,2.4,194.0,3.4,'11111222,11111222,11111222' 
TCOON,ioos:station:TCOON:518:1,2012-07-06T08:00:00Z,29.5150,-94.5133,0.0,1.6,205.0,2.2,'11111222,11111222,11111222' 
TCOON,ioos:station:TCOON:518:1,2012-07-06T09:00:00Z,29.5150,-94.5133,0.0,2.5,192.0,3.6,'11111222,11111222,11111222' 
TCOON,ioos:station:TCOON:518:1,2012-07-06T10:00:00Z,29.5150,-94.5133,0.0,1.5,216.0,2.1,'11111222,11111222,11111222' 
TCOON,ioos:station:TCOON:518:1,2012-07-06T11:00:00Z,29.5150,-94.5133,0.0,1.6,234.0,1.9,'11111222,11111222,11111222' 
TCOON,ioos:station:TCOON:518:1,2012-07-06T12:00:00Z,29.5150,-94.5133,0.0,1.2,247.0,1.6,'11111222,11111222,11111222' 
TCOON,ioos:station:TCOON:518:1,2012-07-06T13:00:00Z,29.5150,-94.5133,0.0,1.3,280.0,1.9,'11111222,11111222,11111222' 
TCOON,ioos:station:TCOON:518:1,2012-07-06T14:00:00Z,29.5150,-94.5133,0.0,1.4,261.0,2.3,'11111222,11111222,11111222' 
TCOON,ioos:station:TCOON:518:1,2012-07-06T15:00:00Z,29.5150,-94.5133,0.0,1.1,224.0,1.6,'11111222,11111222,11111222' 
TCOON,ioos:station:TCOON:518:1,2012-07-06T16:00:00Z,29.5150,-94.5133,0.0,2.5,197.0,4.3,'11111222,11111222,11111222' 
TCOON,ioos:station:TCOON:518:1,2012-07-06T17:00:00Z,29.5150,-94.5133,0.0,3.1,182.0,4.7,'11111222,11111222,11111222' 
TCOON,ioos:station:TCOON:518:1,2012-07-06T18:00:00Z,29.5150,-94.5133,0.0,3.0,188.0,5.0,'11111222,11111222,11111222' 
TCOON,ioos:station:TCOON:518:1,2012-07-06T19:00:00Z,29.5150,-94.5133,0.0,2.7,164.0,4.8,'11111222,11111222,11111222' 
TCOON,ioos:station:TCOON:518:1,2012-07-06T20:00:00Z,29.5150,-94.5133,0.0,2.9,139.0,4.7,'11111222,11111222,11111222' 
TCOON,ioos:station:TCOON:518:1,2012-07-06T21:00:00Z,29.5150,-94.5133,0.0,3.4,162.0,4.9,'11111222,11111222,11111222' 
TCOON,ioos:station:TCOON:518:1,2012-07-06T22:00:00Z,29.5150,-94.5133,0.0,2.5,177.0,4.1,'11111222,11111222,11111222' 
TCOON,ioos:station:TCOON:518:1,2012-07-06T23:00:00Z,29.5150,-94.5133,0.0,2.4,208.0,4.3,'11111222,11111222,11111222' 
TCOON,ioos:station:TCOON:518:1,2012-07-07T00:00:00Z,29.5150,-94.5133,0.0,3.4,188.0,4.8,'11111222,11111222,11111222' 
TCOON,ioos:station:TCOON:518:1,2012-07-07T01:00:00Z,29.5150,-94.5133,0.0,2.4,174.0,4.1,'11111222,11111222,11111222' 
TCOON,ioos:station:TCOON:518:1,2012-07-07T02:00:00Z,29.5150,-94.5133,0.0,2.4,178.0,3.8,'11111222,11111222,11111222' 
TCOON,ioos:station:TCOON:518:1,2012-07-07T03:00:00Z,29.5150,-94.5133,0.0,2.8,180.0,4.1,'11111222,11111222,11111222' 
TCOON,ioos:station:TCOON:518:1,2012-07-07T04:00:00Z,29.5150,-94.5133,0.0,2.2,189.0,4.1,'11111222,11111222,11111222' 
TCOON,ioos:station:TCOON:518:1,2012-07-07T05:00:00Z,29.5150,-94.5133,0.0,1.9,209.0,3.2,'11111222,11111222,11111222' 
TCOON,ioos:station:TCOON:518:1,2012-07-07T06:00:00Z,29.5150,-94.5133,0.0,2.6,213.0,3.8,'11111222,11111222,11111222' 
TCOON,ioos:station:TCOON:518:1,2012-07-07T07:00:00Z,29.5150,-94.5133,0.0,2.1,220.0,3.3,'11111222,11111222,11111222' 
TCOON,ioos:station:TCOON:518:1,2012-07-07T08:00:00Z,29.5150,-94.5133,0.0,2.1,227.0,2.8,'11111222,11111222,11111222' 
TCOON,ioos:station:TCOON:518:1,2012-07-07T09:00:00Z,29.5150,-94.5133,0.0,2.3,234.0,2.9,'11111222,11111222,11111222' 
TCOON,ioos:station:TCOON:518:1,2012-07-07T10:00:00Z,29.5150,-94.5133,0.0,2.0,243.0,2.6,'11111222,11111222,11111222' 
TCOON,ioos:station:TCOON:518:1,2012-07-07T11:00:00Z,29.5150,-94.5133,0.0,1.5,238.0,2.7,'11111222,11111222,11111222' 
TCOON,ioos:station:TCOON:518:1,2012-07-07T12:00:00Z,29.5150,-94.5133,0.0,3.0,262.0,3.9,'11111222,11111222,11111222' 
TCOON,ioos:station:TCOON:518:1,2012-07-07T13:00:00Z,29.5150,-94.5133,0.0,2.2,262.0,2.9,'11111222,11111222,11111222' 
TCOON,ioos:station:TCOON:518:1,2012-07-07T14:00:00Z,29.5150,-94.5133,0.0,4.9,303.0,5.7,'11111222,11111222,11111222' 
TCOON,ioos:station:TCOON:518:1,2012-07-07T15:00:00Z,29.5150,-94.5133,0.0,3.3,293.0,4.4,'11111222,11111222,11111222' 
TCOON,ioos:station:TCOON:518:1,2012-07-07T16:00:00Z,29.5150,-94.5133,0.0,3.7,305.0,4.7,'11111222,11111222,11111222' 
TCOON,ioos:station:TCOON:518:1,2012-07-07T17:00:00Z,29.5150,-94.5133,0.0,1.9,260.0,2.2,'11111222,11111222,11111222' 
TCOON,ioos:station:TCOON:518:1,2012-07-07T18:00:00Z,29.5150,-94.5133,0.0,6.6,91.0,8.2,'11111222,11111222,11111222' 
TCOON,ioos:station:TCOON:518:1,2012-07-07T19:00:00Z,29.5150,-94.5133,0.0,5.2,129.0,6.0,'11111222,11111222,11111222' 
TCOON,ioos:station:TCOON:518:1,2012-07-07T20:00:00Z,29.5150,-94.5133,0.0,3.5,137.0,5.4,'11111222,11111222,11111222' 
TCOON,ioos:station:TCOON:518:1,2012-07-07T21:00:00Z,29.5150,-94.5133,0.0,3.2,135.0,3.9,'11111222,11111222,11111222' 
TCOON,ioos:station:TCOON:518:1,2012-07-07T22:00:00Z,29.5150,-94.5133,0.0,4.3,128.0,5.0,'11111222,11111222,11111222' 
TCOON,ioos:station:TCOON:518:1,2012-07-07T23:00:00Z,29.5150,-94.5133,0.0,4.6,153.0,5.3,'11111222,11111222,11111222' 
TCOON,ioos:station:TCOON:518:1,2012-07-08T00:00:00Z,29.5150,-94.5133,0.0,4.9,160.0,6.1,'11111222,11111222,11111222' 
TCOON,ioos:station:TCOON:518:1,2012-07-08T01:00:00Z,29.5150,-94.5133,0.0,3.6,171.0,5.1,'11111222,11111222,11111222' 
TCOON,ioos:station:TCOON:518:1,2012-07-08T02:00:00Z,29.5150,-94.5133,0.0,2.7,171.0,4.7,'11111222,11111222,11111222' 
TCOON,ioos:station:TCOON:518:1,2012-07-08T03:00:00Z,29.5150,-94.5133,0.0,3.6,167.0,4.3,'11111222,11111222,11111222' 
TCOON,ioos:station:TCOON:518:1,2012-07-08T04:00:00Z,29.5150,-94.5133,0.0,2.6,170.0,4.5,'11111222,11111222,11111222' 
TCOON,ioos:station:TCOON:518:1,2012-07-08T05:00:00Z,29.5150,-94.5133,0.0,2.2,170.0,4.9,'11111222,11111222,11111222' 
TCOON,ioos:station:TCOON:518:1,2012-07-08T06:00:00Z,29.5150,-94.5133,0.0,3.2,182.0,5.3,'11111222,11111222,11111222' 
TCOON,ioos:station:TCOON:518:1,2012-07-08T07:00:00Z,29.5150,-94.5133,0.0,3.6,177.0,5.5,'11111222,11111222,11111222' 
TCOON,ioos:station:TCOON:518:1,2012-07-08T08:00:00Z,29.5150,-94.5133,0.0,3.9,192.0,6.2,'11111222,11111222,11111222' 
TCOON,ioos:station:TCOON:518:1,2012-07-08T09:00:00Z,29.5150,-94.5133,0.0,3.2,199.0,4.7,'11111222,11111222,11111222' 
TCOON,ioos:station:TCOON:518:1,2012-07-08T10:00:00Z,29.5150,-94.5133,0.0,2.4,198.0,3.8,'11111222,11111222,11111222' 
TCOON,ioos:station:TCOON:518:1,2012-07-08T11:00:00Z,29.5150,-94.5133,0.0,2.0,202.0,2.9,'11111222,11111222,11111222' 
TCOON,ioos:station:TCOON:518:1,2012-07-08T12:00:00Z,29.5150,-94.5133,0.0,3.8,307.0,5.1,'11111222,11111222,11111222' 
TCOON,ioos:station:TCOON:518:1,2012-07-08T13:00:00Z,29.5150,-94.5133,0.0,4.8,95.0,6.1,'11111222,11111222,11111222' 
TCOON,ioos:station:TCOON:518:1,2012-07-08T14:00:00Z,29.5150,-94.5133,0.0,5.2,189.0,7.6,'11111222,11111222,11111222' 
TCOON,ioos:station:TCOON:518:1,2012-07-08T15:00:00Z,29.5150,-94.5133,0.0,3.5,8.0,4.2,'11111222,11111222,11111222' 
TCOON,ioos:station:TCOON:518:1,2012-07-08T16:00:00Z,29.5150,-94.5133,0.0,1.9,29.0,2.7,'11111222,11111222,11111222' 
TCOON,ioos:station:TCOON:518:1,2012-07-08T17:00:00Z,29.5150,-94.5133,0.0,4.3,19.0,4.9,'11111222,11111222,11111222' 
TCOON,ioos:station:TCOON:518:1,2012-07-08T18:00:00Z,29.5150,-94.5133,0.0,3.0,21.0,3.6,'11111222,11111222,11111222' 
TCOON,ioos:station:TCOON:518:1,2012-07-08T19:00:00Z,29.5150,-94.5133,0.0,2.2,14.0,2.9,'11111222,11111222,11111222' 
TCOON,ioos:station:TCOON:518:1,2012-07-08T20:00:00Z,29.5150,-94.5133,0.0,1.6,9.0,2.8,'11111222,11111222,11111222' 
TCOON,ioos:station:TCOON:518:1,2012-07-08T21:00:00Z,29.5150,-94.5133,0.0,1.3,38.0,1.7,'11111222,11111222,11111222' 
TCOON,ioos:station:TCOON:518:1,2012-07-08T22:00:00Z,29.5150,-94.5133,0.0,2.4,108.0,3.0,'11111222,11111222,11111222' 
TCOON,ioos:station:TCOON:518:1,2012-07-08T23:00:00Z,29.5150,-94.5133,0.0,4.0,123.0,4.6,'11111222,11111222,11111222' 
TCOON,ioos:station:TCOON:518:1,2012-07-09T00:00:00Z,29.5150,-94.5133,0.0,4.8,141.0,5.3,'11111222,11111222,11111222' 
TCOON,ioos:station:TCOON:518:1,2012-07-09T01:00:00Z,29.5150,-94.5133,0.0,3.5,149.0,4.9,'11111222,11111222,11111222' 
TCOON,ioos:station:TCOON:518:1,2012-07-09T02:00:00Z,29.5150,-94.5133,0.0,3.0,153.0,5.0,'11111222,11111222,11111222' 
TCOON,ioos:station:TCOON:518:1,2012-07-09T03:00:00Z,29.5150,-94.5133,0.0,4.0,159.0,5.2,'11111222,11111222,11111222' 
TCOON,ioos:station:TCOON:518:1,2012-07-09T04:00:00Z,29.5150,-94.5133,0.0,3.2,172.0,4.8,'11111222,11111222,11111222' 
TCOON,ioos:station:TCOON:518:1,2012-07-09T05:00:00Z,29.5150,-94.5133,0.0,3.0,173.0,4.7,'11111222,11111222,11111222' 
TCOON,ioos:station:TCOON:518:1,2012-07-09T06:00:00Z,29.5150,-94.5133,0.0,3.7,171.0,6.2,'11111222,11111222,11111222' 
TCOON,ioos:station:TCOON:518:1,2012-07-09T07:00:00Z,29.5150,-94.5133,0.0,3.6,172.0,5.5,'11111222,11111222,11111222' 
TCOON,ioos:station:TCOON:518:1,2012-07-09T08:00:00Z,29.5150,-94.5133,0.0,3.2,185.0,4.5,'11111222,11111222,11111222' 
TCOON,ioos:station:TCOON:518:1,2012-07-09T09:00:00Z,29.5150,-94.5133,0.0,1.7,210.0,2.9,'11111222,11111222,11111222' 
TCOON,ioos:station:TCOON:518:1,2012-07-09T10:00:00Z,29.5150,-94.5133,0.0,3.2,209.0,4.4,'11111222,11111222,11111222' 
TCOON,ioos:station:TCOON:518:1,2012-07-09T11:00:00Z,29.5150,-94.5133,0.0,3.3,220.0,4.3,'11111222,11111222,11111222' 
TCOON,ioos:station:TCOON:518:1,2012-07-09T12:00:00Z,29.5150,-94.5133,0.0,2.6,238.0,4.0,'11111222,11111222,11111222' 
TCOON,ioos:station:TCOON:518:1,2012-07-09T13:00:00Z,29.5150,-94.5133,0.0,2.9,252.0,4.2,'11111222,11111222,11111222' 